Zurück zum Katalog

ATLAS CENTAUR 2 DEB

AktivLEO
NORAD 3741·DEBRIS·🇺🇸 United States

Gestartet Nov 27, 1963 von Cape Canaveral Space Force Station

Loading…

Nächste Überflüge (nächste 24 Stunden)

TLE

AktuellSource: Space-Track

Epoche: Sep 14, 2026, 00:01 UTC

1 03741U 63047L   26257.00081837  .00004840  00000-0  90197-3 0  9999
2 03741  29.8763 209.3503 0233678  85.4199 277.3052 14.47310272925675

Verfolge ATLAS CENTAUR 2 DEB in Echtzeit mit AllMySat

Download on the App Store